User: anonymous   Login
Location: Fort Wayne
(41.1310°N, 85.1290°W)
Time: 20:27:28
(UTC-04:00)
Language:

ISS - Orbit

View from above orbital plane
View from above orbital plane
View from above satellite
View from above satellite

Ground track
Ground track

The orbit data is extracted from the following two-line orbital elements,

1 25544U 98067A   16240.88403329  .00003187  00000-0  54953-4 0  9999
2 25544  51.6453  60.2665 0002981 249.0245 192.7145 15.54337124 16143
Epoch (UTC): 27 August 2016 21:13:00
Eccentricity: 0.0002981
inclination: 51.6453°
perigee height: 402 km
apogee height: 406 km
right ascension of ascending node: 60.2665°
argument of perigee: 249.0245°
revolutions per day: 15.54337124
mean anomaly at epoch: 192.7145°
orbit number at epoch: 1614

The dashed part of the orbit path shows where the satellite is in the earth's shadow,  

DLR